Orbital Elements at Epoch 2459200.5 (2020-Dec-17.0) TDB
Reference: JPL 20 (heliocentric ecliptic J2000)
Element | Value | Uncertainty (1-sigma) | Units |
e | .07672490717898935 | 3.787e-08 | |
a | 2.380879852197096 | 8.3628e-09 | au |
q | 2.198207066532948 | 9.1979e-08 | au |
i | .4461460381824631 | 4.7019e-06 | deg |
node | 197.1558315383525 | 0.00044816 | deg |
peri | 227.6649401603924 | 0.00044903 | deg |
M | 342.5284571913069 | 2.7183e-05 | deg |
tp | 2459265.622850610731 (2021-Feb-20.12285061) | 0.00010134 | TDB |
period | 1341.852089226968 3.67 | 7.0698e-06 1.936e-08 | d yr |
n | .2682859034093642 | 1.4135e-09 | deg/d |
Q | 2.563552637861243 | 9.0044e-09 | au |
|
| | Orbit Determination Parameters
Additional Information
|